Regional Weather Roundup
Issued by NWS Charleston, SC

Current Version | Previous Version | Graphics & Text | Print | Product List | Glossary On
Versions: 1 2 3 4 5 6 7 8 9 10 11 12 13 14 15 16 17 18 19 20 21 22 23 24 25 26 27 28 29 30 31 32 33 34 35 36 37 38 39 40 41 42 43 44 45 46 47 48 49 50
000 ASUS42 KCHS 240227 RWRCHS REGIONAL WEATHER ROUNDUP NATIONAL WEATHER SERVICE CHARLESTON SC 1000 PM EDT THU MAR 23 2017 NOTE: "FAIR" INDICATES FEW OR NO CLOUDS BELOW 12,000 FEET WITH NO SIGNIFICANT WEATHER AND/OR OBSTRUCTIONS TO VISIBILITY. NOT ALL STATIONS ARE QUALITY CONTROLLED. USE DATA WITH CAUTION... ESPECIALLY DEWPOINT OBSERVATIONS. SCZ027-030-031-034>040-042>050-240300- ...SOUTHEAST SOUTH CAROLINA... CITY SKY/WX TMP DP RH WIND PRES REMARKS N CHARLESTON CLEAR 50 39 66 NE8 30.49S WATERFRONT PRK N/A 54 44 69 NE8 30.48S JOHNS ISLAND FAIR 54 43 66 NE8G15 30.49S PINOPOLIS N/A 50 39 66 SE5 30.42R MONCKS CORNER FAIR 46 34 61 CALM 30.51R SUMMERVILLE FAIR 50 36 57 E3 30.51R BEAUFORT MCAS CLEAR 54 44 69 NE9 30.48R BEAUFORT ARPT FAIR 52 45 76 NE12 30.48R HILTON HEAD IS CLEAR N/A N/A N/A NE9G18 30.48R WALTERBORO CLEAR 50 37 62 E7 30.50R ALLENDALE FAIR 55 37 50 SE6 30.46R ...SOUTHERN MIDLANDS AND PEE DEE... CITY SKY/WX TMP DP RH WIND PRES REMARKS GEORGETOWN FAIR 48 34 57 E3 30.52S KINGSTREE FAIR 45 34 65 CALM 30.52R ORANGEBURG CLEAR 53 34 48 SE6 30.48R BARNWELL FAIR 57 37 47 E8 30.47R AIKEN FAIR 52 32 46 E8 30.49R MANNING FAIR 46 36 66 CALM 30.51R COLUMBIA PTCLDY 53 31 42 E5 30.47R SUMTER CLEAR 51 30 43 SE6 30.47R FLORENCE CLEAR 48 33 56 SE10 30.51R MYRTLE BEACH CLEAR 50 36 57 E12 30.54R N MYRTLE BEACH CLEAR 50 34 54 E9 30.52S $$ GAZ063-065-086>088-099>101-113>116-118-119-134>141-150-240300- ...SOUTHEAST GEORGIA... CITY SKY/WX TMP DP RH WIND PRES REMARKS SAVANNAH ARPT CLEAR 54 44 69 E9 30.46S HUNTER AAF CLEAR 55 51 84 E8 30.43S FORT STEWART CLEAR 54 48 80 E6 30.43R STATESBORO CLEAR 56 45 65 CALM 30.46R SYLVANIA CLEAR N/A N/A N/A SE3 30.47R CLAXTON FAIR N/A N/A N/A E5 30.46R ...CSRA...CENTRAL AND FAR SOUTHEAST GEORGIA... CITY SKY/WX TMP DP RH WIND PRES REMARKS THOMSON CLOUDY 57 35 43 SE6 30.50R AUGUSTA-BUSH PTCLDY 56 35 45 E6 30.45R AUGUSTA-DANIEL CLEAR 59 31 34 E6 30.45R SWAINSBORO FAIR 59 41 51 SE6 30.45R VIDALIA PTCLDY 59 45 58 E6 30.44R EASTMAN CLOUDY 63 37 37 SE6 30.46R HAZLEHURST FAIR 59 46 61 E9 30.42R ALMA CLEAR 57 49 74 E8 30.42R WAYCROSS MOCLDY 59 56 91 E9 30.43R JESUP MOCLDY 55 50 82 E7 30.44S BAXLEY FAIR 57 52 82 E7 30.43S BRUNSWICK CLOUDY 59 55 88 NE14G20 30.44S SAINT SIMONS CLOUDY 60 55 83 NE13 30.42S $$ SCZ027-028-034-036>038-045-046-048>050-GAZ119-141-240300- ...LAKE AND SUPPLEMENTAL COASTAL OBSERVATIONS... STATION/POSITION TIME TEMP WIND PRES WAVE SWELL AIR SEA DIR/SP/G HT/PER HT/PER/DIR (UTC) (F) (DEG/KT/KT) (MB) (FT/S) (FT/S/D) WINYAH BAY 0145 53 90/ 8 1033.0S LAKE MURRAY 0150 54 70/ 4/ 6 1031.2R ACE BASIN NERRS 0130 53 40/ 5 1032.0S FORT PULASKI 0200 57 61 70/ 19/ 24 1031.6 SAPELO ISLAND 0200 58 50/ 11 1031.0 $$ ANZ835-935-AMZ111-154-330-350-352-354-370-450-454-472-240300- ...C-MAN AND BUOY OBSERVATIONS... STATION/POSITION TIME TEMP WIND PRES WAVE SWELL AIR SEA DIR/SP/G HT/PER HT/PER/DIR (UTC) (F) (DEG/KT/KT) (MB) (FT/S) (FT/S/D) BUOY 41004 0150 62 71 60/ 19/ 23 1030.9R 7/ 7 BUOY 41008 0150 60 62 60/ 19/ 23 1029.5R 7/ 8 2/100/11 FOLLY BEACH CMAN 0200 56 60/ 19/ 22 1032.6R CAPERS NEARSHORE 0108 55 60/ 19/ 25 1031.9F FRIPP NEARSHORE 0208 57 60 60/ 19/ 27 1030.9F STATION/POSITION TIME TEMP WIND PRES WAVE SWELL AIR SEA DIR/SP/G HT/PER HT/PER/DIR (UTC) (F) (DEG/KT/KT) (MB) (FT/S) (FT/S/D) 5E ST. MARYS GA 0200 63 N/A 6/ 7 2/ 90/12 FRYING PAN BUOY 0210 56 65 60/ 16/ 19 1033.3 BUOY 41025 0150 50 72 40/ 8/ 14 1035.5R 9/11 10/ 50/11 CAPE LOOKOUT NC 0200 48 40/ 13/ 15 1034.6F BUOY 41002 0150 62 72 50/ 17/ 21 1031.8R 7/11 5/ 10/11 BUOY 41010 NOT AVBL ST AUGUSTINE FL 0200 66 65 80/ 14/ 16 1029.3R $$

USA.gov is the U.S. government's official web portal to all federal, state and local government web resources and services.